,,PA_Meas_PMT16A,,PR_Meas_QMR101_102,,RH_Meas_QMH101,,SR_Meas_QMS101,,TA_Meas_QMH101,,GenWind,,GenWind,
time,status,PA,status,PR,status,RH,status,SR,status,TA,status,DirAvg,status,SpdAvg,
2012-03-28, 00:00:04,VALID,920.128,VALID,0,VALID,97.229,VALID,0,VALID,19.2723,VALID,113,VALID,0.805859,
2012-03-28, 00:01:04,VALID,920.121,VALID,0,VALID,97.2214,VALID,0,VALID,19.2528,VALID,113,VALID,0.610156,
2012-03-28, 00:02:04,VALID,920.112,VALID,0,VALID,97.229,VALID,0.107441,VALID,19.2528,VALID,113,VALID,0.908984,
2012-03-28, 00:03:04,VALID,920.123,VALID,0,VALID,97.2367,VALID,0.107441,VALID,19.2334,VALID,113,VALID,0.979688,
2012-03-28, 00:04:04,VALID,920.105,VALID,0,VALID,97.2443,VALID,0,VALID,19.2334,VALID,113,VALID,0.677734,
2012-03-28, 00:05:04,VALID,920.125,VALID,0,VALID,97.2519,VALID,0,VALID,19.2334,VALID,113,VALID,0.673437,
2012-03-28, 00:06:04,VALID,920.122,VALID,0,VALID,97.2748,VALID,0.107441,VALID,19.2319,VALID,113,VALID,0.728125,
2012-03-28, 00:07:04,VALID,920.13,VALID,0,VALID,97.29,VALID,0.107441,VALID,19.2528,VALID,141,VALID,0.985156,
2012-03-28, 00:08:04,VALID,920.128,VALID,0,VALID,97.2824,VALID,0,VALID,19.2124,VALID,160,VALID,0.962891,
2012-03-28, 00:09:04,VALID,920.123,VALID,0,VALID,97.2748,VALID,0.107441,VALID,19.2334,VALID,160,VALID,1.06367,
2012-03-28, 00:10:04,VALID,920.112,VALID,0,VALID,97.2977,VALID,0.107441,VALID,19.2139,VALID,160,VALID,0.867578,
2012-03-28, 00:11:04,VALID,920.103,VALID,0,VALID,97.2977,VALID,0.107441,VALID,19.2334,VALID,160,VALID,0.608594,
2012-03-28, 00:12:04,VALID,920.106,VALID,0,VALID,97.2824,VALID,0.107441,VALID,19.2334,VALID,160,VALID,0.622266,
2012-03-28, 00:13:04,VALID,920.124,VALID,0,VALID,97.3053,VALID,0.107441,VALID,19.2528,VALID,160,VALID,0.683984,
2012-03-28, 00:14:04,VALID,920.086,VALID,0,VALID,97.3053,VALID,0,VALID,19.2528,VALID,160,VALID,0.719922,
2012-03-28, 00:15:04,VALID,920.096,VALID,0,VALID,97.3129,VALID,0.107441,VALID,19.2723,VALID,160,VALID,0.757031,
2012-03-28, 00:16:04,VALID,920.063,VALID,0,VALID,97.29,VALID,0.107441,VALID,19.2124,VALID,160,VALID,0.73125,
2012-03-28, 00:17:04,VALID,920.077,VALID,0,VALID,97.29,VALID,0.107441,VALID,19.2319,VALID,160,VALID,0.642969,
2012-03-28, 00:18:04,VALID,920.07,VALID,0,VALID,97.29,VALID,0,VALID,19.2528,VALID,160,VALID,0.692187,
2012-03-28, 00:19:04,VALID,920.065,VALID,0,VALID,97.2824,VALID,0,VALID,19.2514,VALID,160,VALID,0.917969,
2012-03-28, 00:20:04,VALID,920.044,VALID,0,VALID,97.29,VALID,0,VALID,19.2723,VALID,160,VALID,1.14297,
2012-03-28, 00:21:04,VALID,920.04,VALID,0,VALID,97.2672,VALID,0.107441,VALID,19.2514,VALID,160,VALID,0.690234,
2012-03-28, 00:22:04,VALID,920.063,VALID,0,VALID,97.2672,VALID,0.107441,VALID,19.2709,VALID,151,VALID,1.09648,
2012-03-28, 00:23:04,VALID,920.035,VALID,0,VALID,97.2367,VALID,0.107441,VALID,19.2514,VALID,140,VALID,0.953906,
2012-03-28, 00:24:04,VALID,920.018,VALID,0,VALID,97.2443,VALID,0,VALID,19.2723,VALID,140,VALID,0.903125,
2012-03-28, 00:25:04,VALID,920.042,VALID,0,VALID,97.2214,VALID,0,VALID,19.2933,VALID,140,VALID,0.909375,
2012-03-28, 00:26:04,VALID,920.047,VALID,0,VALID,97.1986,VALID,0,VALID,19.2723,VALID,140,VALID,0.685547,
2012-03-28, 00:27:04,VALID,920.056,VALID,0,VALID,97.1757,VALID,0,VALID,19.3113,VALID,140,VALID,0.567578,
2012-03-28, 00:28:04,VALID,920.031,VALID,0,VALID,97.1833,VALID,0,VALID,19.3323,VALID,140,VALID,0.577734,
2012-03-28, 00:29:04,VALID,920.064,VALID,0,VALID,97.1604,VALID,0,VALID,19.3113,VALID,140,VALID,0.653516,
2012-03-28, 00:30:04,VALID,920.069,VALID,0,VALID,97.1604,VALID,0,VALID,19.3728,VALID,150,VALID,0.551562,
2012-03-28, 00:31:04,VALID,920.068,VALID,0,VALID,97.1376,VALID,0,VALID,19.3308,VALID,159,VALID,0.404297,
2012-03-28, 00:32:04,VALID,920.064,VALID,0,VALID,97.1604,VALID,0,VALID,19.3128,VALID,159,VALID,0.694922,
2012-03-28, 00:33:04,VALID,920.061,VALID,0,VALID,97.1604,VALID,0,VALID,19.3113,VALID,159,VALID,0.524609,
2012-03-28, 00:34:04,VALID,920.072,VALID,0,VALID,97.1757,VALID,0,VALID,19.2918,VALID,135,VALID,0.624609,
2012-03-28, 00:35:04,VALID,920.069,VALID,0,VALID,97.1833,VALID,0,VALID,19.2933,VALID,135,VALID,1.15156,
2012-03-28, 00:36:04,VALID,920.068,VALID,0,VALID,97.1604,VALID,0,VALID,19.2528,VALID,135,VALID,0.594922,
2012-03-28, 00:37:04,VALID,920.065,VALID,0,VALID,97.2062,VALID,0,VALID,19.2528,VALID,135,VALID,0.802734,
2012-03-28, 00:38:04,VALID,920.07,VALID,0,VALID,97.2367,VALID,0,VALID,19.2738,VALID,135,VALID,0.980469,
2012-03-28, 00:39:04,VALID,920.069,VALID,0,VALID,97.2672,VALID,0,VALID,19.2723,VALID,135,VALID,1.02188,
2012-03-28, 00:40:04,VALID,920.033,VALID,0,VALID,97.2824,VALID,0.107441,VALID,19.2918,VALID,135,VALID,0.603125,
2012-03-28, 00:41:04,VALID,920.03,VALID,0,VALID,97.2824,VALID,0,VALID,19.2918,VALID,135,VALID,0.534375,
2012-03-28, 00:42:04,VALID,920.059,VALID,0,VALID,97.3053,VALID,0,VALID,19.2723,VALID,135,VALID,0.651953,
2012-03-28, 00:43:04,VALID,920.058,VALID,0,VALID,97.3053,VALID,0,VALID,19.2723,VALID,135,VALID,0.911719,
2012-03-28, 00:44:04,VALID,920.043,VALID,0,VALID,97.3053,VALID,0,VALID,19.2723,VALID,135,VALID,1.02383,
2012-03-28, 00:45:04,VALID,920.043,VALID,0,VALID,97.3205,VALID,0,VALID,19.2723,VALID,135,VALID,0.976953,
2012-03-28, 00:46:04,VALID,920.043,VALID,0,VALID,97.2977,VALID,0.107441,VALID,19.2918,VALID,135,VALID,1.23242,
2012-03-28, 00:47:04,VALID,920.029,VALID,0,VALID,97.3205,VALID,0,VALID,19.2918,VALID,135,VALID,0.944141,
2012-03-28, 00:48:04,VALID,920.017,VALID,0,VALID,97.3129,VALID,0,VALID,19.2918,VALID,135,VALID,0.721484,
2012-03-28, 00:49:04,VALID,920.006,VALID,0,VALID,97.3205,VALID,0.107441,VALID,19.2709,VALID,122,VALID,0.678516,
2012-03-28, 00:50:04,VALID,920.007,VALID,0,VALID,97.3129,VALID,0.107441,VALID,19.2918,VALID,122,VALID,0.518359,
2012-03-28, 00:51:04,VALID,919.983,VALID,0,VALID,97.2977,VALID,0.107441,VALID,19.3113,VALID,99,VALID,0.976953,
2012-03-28, 00:52:04,VALID,919.95,VALID,0,VALID,97.3129,VALID,0.107441,VALID,19.3113,VALID,113,VALID,1.11797,
2012-03-28, 00:53:04,VALID,919.92,VALID,0,VALID,97.3129,VALID,0,VALID,19.2709,VALID,111,VALID,1.19766,
2012-03-28, 00:54:05,VALID,919.932,VALID,0,VALID,97.2977,VALID,0,VALID,19.3128,VALID,111,VALID,1.20039,
2012-03-28, 00:55:05,VALID,919.916,VALID,0,VALID,97.29,VALID,0,VALID,19.3128,VALID,111,VALID,1.1125,
2012-03-28, 00:56:05,VALID,919.905,VALID,0,VALID,97.2824,VALID,0,VALID,19.3128,VALID,111,VALID,1.05039,
2012-03-28, 00:57:05,VALID,919.868,VALID,0,VALID,97.2595,VALID,0,VALID,19.3323,VALID,111,VALID,1.15039,
2012-03-28, 00:58:05,VALID,919.863,VALID,0,VALID,97.2595,VALID,0,VALID,19.3323,VALID,131,VALID,0.962109,
2012-03-28, 00:59:05,VALID,919.85,VALID,0,VALID,97.2443,VALID,0,VALID,19.3713,VALID,134,VALID,1.05898,
2012-03-28, 01:00:05,VALID,919.807,VALID,0,VALID,97.2519,VALID,0,VALID,19.3518,VALID,132,VALID,1.06641,
2012-03-28, 01:01:05,VALID,919.812,VALID,0,VALID,97.2367,VALID,0,VALID,19.3503,VALID,132,VALID,1.10234,
2012-03-28, 01:02:05,VALID,919.809,VALID,0,VALID,97.2214,VALID,0,VALID,19.3713,VALID,133,VALID,0.83125,
2012-03-28, 01:03:05,VALID,919.767,VALID,0,VALID,97.2214,VALID,0,VALID,19.3518,VALID,133,VALID,0.639453,
2012-03-28, 01:04:05,VALID,919.766,VALID,0,VALID,97.2138,VALID,0,VALID,19.3518,VALID,133,VALID,0.576563,
2012-03-28, 01:05:05,VALID,919.748,VALID,0,VALID,97.2138,VALID,0,VALID,19.3518,VALID,132,VALID,0.466797,
2012-03-28, 01:06:05,VALID,919.708,VALID,0,VALID,97.2214,VALID,0,VALID,19.3503,VALID,132,VALID,0.766406,
2012-03-28, 01:07:05,VALID,919.679,VALID,0,VALID,97.2214,VALID,0,VALID,19.3713,VALID,132,VALID,0.59375,
2012-03-28, 01:08:05,VALID,919.68,VALID,0,VALID,97.2138,VALID,0,VALID,19.3908,VALID,131,VALID,0.840234,
2012-03-28, 01:09:05,VALID,919.653,VALID,0,VALID,97.2062,VALID,0,VALID,19.4103,VALID,125,VALID,1.1668,
2012-03-28, 01:10:05,VALID,919.628,VALID,0,VALID,97.1681,VALID,0,VALID,19.4088,VALID,111,VALID,0.339063,
2012-03-28, 01:11:05,VALID,919.604,VALID,0,VALID,97.1299,VALID,0,VALID,19.4298,VALID,125,VALID,0.817969,
2012-03-28, 01:12:05,VALID,919.571,VALID,0,VALID,97.0994,VALID,0,VALID,19.4493,VALID,126,VALID,1.07539,
2012-03-28, 01:13:05,VALID,919.552,VALID,0,VALID,97.0766,VALID,0,VALID,19.4478,VALID,128,VALID,0.755859,
2012-03-28, 01:14:05,VALID,919.548,VALID,0,VALID,97.0385,VALID,0,VALID,19.4688,VALID,118,VALID,1.10117,
2012-03-28, 01:15:05,VALID,919.533,VALID,0,VALID,97.0308,VALID,0,VALID,19.4673,VALID,117,VALID,1.03867,
2012-03-28, 01:16:05,VALID,919.524,VALID,0,VALID,96.9851,VALID,0,VALID,19.4283,VALID,122,VALID,1.37344,
2012-03-28, 01:17:05,VALID,919.495,VALID,0,VALID,96.9927,VALID,0,VALID,19.4493,VALID,129,VALID,1.33906,
2012-03-28, 01:18:05,VALID,919.501,VALID,0,VALID,96.947,VALID,0,VALID,19.4688,VALID,124,VALID,1.1668,
2012-03-28, 01:19:05,VALID,919.454,VALID,0,VALID,96.947,VALID,0,VALID,19.4493,VALID,125,VALID,1.16523,
2012-03-28, 01:20:05,VALID,919.452,VALID,0,VALID,96.9012,VALID,0,VALID,19.4478,VALID,125,VALID,1.18672,
2012-03-28, 01:21:05,VALID,919.436,VALID,0,VALID,96.8936,VALID,0,VALID,19.4688,VALID,124,VALID,1.19023,
2012-03-28, 01:22:05,VALID,919.417,VALID,0,VALID,96.8631,VALID,0,VALID,19.4493,VALID,125,VALID,1.03789,
2012-03-28, 01:23:05,VALID,919.42,VALID,0,VALID,96.8631,VALID,0,VALID,19.4688,VALID,124,VALID,0.636328,
2012-03-28, 01:24:05,VALID,919.4,VALID,0,VALID,96.825,VALID,0,VALID,19.4658,VALID,125,VALID,0.964453,
2012-03-28, 01:25:05,VALID,919.363,VALID,0,VALID,96.8174,VALID,0,VALID,19.4688,VALID,124,VALID,0.677734,
2012-03-28, 01:26:05,VALID,919.336,VALID,0,VALID,96.7945,VALID,0,VALID,19.4493,VALID,125,VALID,0.827734,
2012-03-28, 01:27:05,VALID,919.338,VALID,0,VALID,96.7945,VALID,0,VALID,19.4493,VALID,124,VALID,0.582812,
2012-03-28, 01:28:05,VALID,919.322,VALID,0,VALID,96.7716,VALID,0,VALID,19.4493,VALID,124,VALID,0.338281,
2012-03-28, 01:29:05,VALID,919.3,VALID,0,VALID,96.7564,VALID,0,VALID,19.4493,VALID,124,VALID,0.664844,
2012-03-28, 01:30:05,VALID,919.295,VALID,0,VALID,96.7259,VALID,0,VALID,19.4493,VALID,125,VALID,0.757422,
2012-03-28, 01:31:05,VALID,919.252,VALID,0,VALID,96.6954,VALID,0,VALID,19.4688,VALID,124,VALID,0.807422,
2012-03-28, 01:32:05,VALID,919.243,VALID,0,VALID,96.6344,VALID,0,VALID,19.4688,VALID,124,VALID,0.769141,
2012-03-28, 01:33:05,VALID,919.242,VALID,0,VALID,96.5887,VALID,0,VALID,19.4688,VALID,125,VALID,0.882031,
2012-03-28, 01:34:05,VALID,919.233,VALID,0,VALID,96.5506,VALID,0,VALID,19.4688,VALID,124,VALID,1.03125,
2012-03-28, 01:35:05,VALID,919.229,VALID,0,VALID,96.5048,VALID,0,VALID,19.4688,VALID,125,VALID,0.754297,
2012-03-28, 01:36:05,VALID,919.235,VALID,0,VALID,96.4667,VALID,0,VALID,19.4493,VALID,125,VALID,0.859375,
2012-03-28, 01:37:05,VALID,919.259,VALID,0,VALID,96.4362,VALID,0,VALID,19.4283,VALID,125,VALID,0.817969,
2012-03-28, 01:38:05,VALID,919.233,VALID,0,VALID,96.421,VALID,0,VALID,19.4298,VALID,124,VALID,0.548828,
2012-03-28, 01:39:05,VALID,919.212,VALID,0,VALID,96.3981,VALID,0.107441,VALID,19.4283,VALID,125,VALID,0.530859,
2012-03-28, 01:40:05,VALID,919.201,VALID,0,VALID,96.4362,VALID,0,VALID,19.4703,VALID,125,VALID,0.467187,
2012-03-28, 01:41:05,VALID,919.206,VALID,0,VALID,96.3981,VALID,0.107441,VALID,19.4298,VALID,125,VALID,0.285937,
2012-03-28, 01:42:05,VALID,919.177,VALID,0,VALID,96.3905,VALID,0,VALID,19.3879,VALID,125,VALID,0,
2012-03-28, 01:43:05,VALID,919.143,VALID,0,VALID,96.3905,VALID,0,VALID,19.4074,VALID,125,VALID,0,
2012-03-28, 01:44:05,VALID,919.123,VALID,0,VALID,96.3905,VALID,0,VALID,19.3459,VALID,125,VALID,0,
2012-03-28, 01:45:05,VALID,919.1,VALID,0,VALID,96.3295,VALID,0,VALID,19.4283,VALID,125,VALID,0,
2012-03-28, 01:46:05,VALID,919.058,VALID,0,VALID,96.2837,VALID,0,VALID,19.4074,VALID,125,VALID,0.181641,
2012-03-28, 01:47:05,VALID,919.084,VALID,0,VALID,96.3142,VALID,0,VALID,19.4478,VALID,125,VALID,0.234375,
2012-03-28, 01:48:05,VALID,919.063,VALID,0,VALID,96.36,VALID,0,VALID,19.4478,VALID,124,VALID,0.369141,
2012-03-28, 01:49:05,VALID,919.034,VALID,0,VALID,96.421,VALID,0.107441,VALID,19.5093,VALID,124,VALID,0.320703,
2012-03-28, 01:50:05,VALID,919.026,VALID,0,VALID,96.4819,VALID,0,VALID,19.4868,VALID,124,VALID,0.253516,
2012-03-28, 01:51:05,VALID,919.03,VALID,0,VALID,96.4819,VALID,0,VALID,19.4673,VALID,124,VALID,0.578516,
2012-03-28, 01:52:05,VALID,918.994,VALID,0,VALID,96.4896,VALID,0,VALID,19.4268,VALID,125,VALID,0.342578,
2012-03-28, 01:53:05,VALID,918.996,VALID,0,VALID,96.4896,VALID,0.107441,VALID,19.3474,VALID,125,VALID,0.431641,
2012-03-28, 01:54:05,VALID,918.984,VALID,0,VALID,96.5201,VALID,0,VALID,19.3879,VALID,174,VALID,0.800391,
2012-03-28, 01:55:05,VALID,918.949,VALID,0,VALID,96.5658,VALID,0,VALID,19.3489,VALID,174,VALID,0.378125,
2012-03-28, 01:56:05,VALID,918.938,VALID,0,VALID,96.6192,VALID,0,VALID,19.3893,VALID,174,VALID,0.140625,
2012-03-28, 01:57:05,VALID,918.888,VALID,0,VALID,96.6649,VALID,0,VALID,19.4313,VALID,174,VALID,0.316797,
2012-03-28, 01:58:05,VALID,918.838,VALID,0,VALID,96.6954,VALID,0,VALID,19.4313,VALID,174,VALID,0.251563,
2012-03-28, 01:59:05,VALID,918.787,VALID,0,VALID,96.6954,VALID,0,VALID,19.3474,VALID,174,VALID,0.654688,
2012-03-28, 02:00:05,VALID,918.773,VALID,0,VALID,96.7259,VALID,0,VALID,19.3684,VALID,174,VALID,0.622656,
2012-03-28, 02:01:05,VALID,918.777,VALID,0,VALID,96.7335,VALID,0,VALID,19.3294,VALID,174,VALID,0.517969,
2012-03-28, 02:02:05,VALID,918.771,VALID,0,VALID,96.7869,VALID,0,VALID,19.3294,VALID,174,VALID,0.3625,
2012-03-28, 02:03:05,VALID,918.726,VALID,0,VALID,96.825,VALID,0,VALID,19.3294,VALID,174,VALID,0.238672,
2012-03-28, 02:04:05,VALID,918.766,VALID,0,VALID,96.8707,VALID,0,VALID,19.3308,VALID,174,VALID,0.336328,
2012-03-28, 02:05:05,VALID,918.768,VALID,0,VALID,96.9012,VALID,0.107441,VALID,19.3323,VALID,174,VALID,0.187109,
2012-03-28, 02:06:05,VALID,918.779,VALID,0,VALID,96.9317,VALID,0,VALID,19.2904,VALID,174,VALID,0,
2012-03-28, 02:07:05,VALID,918.799,VALID,0,VALID,96.9546,VALID,0,VALID,19.3503,VALID,174,VALID,0.234766,
2012-03-28, 02:08:05,VALID,918.797,VALID,0,VALID,96.9851,VALID,0,VALID,19.3294,VALID,174,VALID,0.464844,
2012-03-28, 02:09:05,VALID,918.82,VALID,0,VALID,96.9622,VALID,0,VALID,19.3308,VALID,174,VALID,0.980078,
2012-03-28, 02:10:05,VALID,918.809,VALID,0,VALID,96.9546,VALID,0,VALID,19.3113,VALID,172,VALID,1.10859,
2012-03-28, 02:11:05,VALID,918.804,VALID,0,VALID,96.9698,VALID,0,VALID,19.2918,VALID,172,VALID,1.02695,
2012-03-28, 02:12:05,VALID,918.8,VALID,0,VALID,96.9851,VALID,0,VALID,19.2918,VALID,172,VALID,0.612109,
2012-03-28, 02:13:05,VALID,918.768,VALID,0,VALID,97.0232,VALID,0,VALID,19.3338,VALID,172,VALID,0.466797,
2012-03-28, 02:14:05,VALID,918.768,VALID,0,VALID,97.0156,VALID,0,VALID,19.2933,VALID,172,VALID,0.341016,
2012-03-28, 02:15:05,VALID,918.793,VALID,0,VALID,97.0003,VALID,0,VALID,19.2528,VALID,172,VALID,0.572656,
2012-03-28, 02:16:05,VALID,918.792,VALID,0,VALID,97.008,VALID,0,VALID,19.2723,VALID,172,VALID,0.501172,
2012-03-28, 02:17:05,VALID,918.791,VALID,0,VALID,97.008,VALID,0,VALID,19.2709,VALID,172,VALID,0.560938,
2012-03-28, 02:18:05,VALID,918.8,VALID,0,VALID,97.008,VALID,0,VALID,19.3113,VALID,172,VALID,0.755469,
2012-03-28, 02:19:05,VALID,918.854,VALID,0,VALID,96.9851,VALID,0.107441,VALID,19.3099,VALID,172,VALID,0.7125,
2012-03-28, 02:20:05,VALID,918.792,VALID,0,VALID,96.9698,VALID,0,VALID,19.3713,VALID,172,VALID,0.774219,
2012-03-28, 02:21:05,VALID,918.81,VALID,0,VALID,96.9394,VALID,0.107441,VALID,19.3518,VALID,172,VALID,0.705859,
2012-03-28, 02:22:05,VALID,918.805,VALID,0,VALID,96.947,VALID,0,VALID,19.3503,VALID,172,VALID,0.126563,
2012-03-28, 02:23:05,VALID,918.817,VALID,0,VALID,96.947,VALID,0,VALID,19.3713,VALID,172,VALID,0.28125,
2012-03-28, 02:24:05,VALID,918.783,VALID,0,VALID,96.9317,VALID,0,VALID,19.3503,VALID,172,VALID,0.0480469,
2012-03-28, 02:25:05,VALID,918.774,VALID,0,VALID,96.9012,VALID,0,VALID,19.3503,VALID,172,VALID,0.277734,
2012-03-28, 02:26:05,VALID,918.753,VALID,0,VALID,96.9089,VALID,0,VALID,19.3698,VALID,172,VALID,0.090625,
2012-03-28, 02:27:05,VALID,918.757,VALID,0,VALID,96.8479,VALID,0,VALID,19.3489,VALID,172,VALID,0.4,
2012-03-28, 02:28:05,VALID,918.786,VALID,0,VALID,96.8403,VALID,0,VALID,19.3698,VALID,172,VALID,0.521484,
2012-03-28, 02:29:05,VALID,918.742,VALID,0,VALID,96.8631,VALID,0,VALID,19.3684,VALID,172,VALID,0.725391,
2012-03-28, 02:30:05,VALID,918.732,VALID,0,VALID,96.825,VALID,0,VALID,19.3908,VALID,172,VALID,0.560547,
2012-03-28, 02:31:05,VALID,918.777,VALID,0,VALID,96.8479,VALID,0,VALID,19.3698,VALID,172,VALID,0.425781,
2012-03-28, 02:32:05,VALID,918.766,VALID,0,VALID,96.8784,VALID,0,VALID,19.3698,VALID,172,VALID,0.235938,
2012-03-28, 02:33:05,VALID,918.767,VALID,0,VALID,96.8631,VALID,0,VALID,19.3698,VALID,172,VALID,0.301953,
2012-03-28, 02:34:05,VALID,918.774,VALID,0,VALID,96.8784,VALID,0,VALID,19.3503,VALID,172,VALID,0,
2012-03-28, 02:35:05,VALID,918.772,VALID,0,VALID,96.886,VALID,0,VALID,19.3698,VALID,172,VALID,0.0894531,
2012-03-28, 02:36:05,VALID,918.76,VALID,0,VALID,96.9165,VALID,0,VALID,19.3294,VALID,172,VALID,0.291797,
2012-03-28, 02:37:05,VALID,918.767,VALID,0,VALID,96.9089,VALID,0,VALID,19.3308,VALID,172,VALID,0.404687,
2012-03-28, 02:38:05,VALID,918.772,VALID,0,VALID,96.9241,VALID,0,VALID,19.3503,VALID,172,VALID,0.746875,
2012-03-28, 02:39:05,VALID,918.76,VALID,0,VALID,96.9546,VALID,0,VALID,19.3308,VALID,172,VALID,0.407031,
2012-03-28, 02:40:05,VALID,918.749,VALID,0,VALID,96.9698,VALID,0,VALID,19.3099,VALID,172,VALID,0.380078,
2012-03-28, 02:41:05,VALID,918.74,VALID,0,VALID,96.9851,VALID,0,VALID,19.3503,VALID,172,VALID,0.233984,
2012-03-28, 02:42:05,VALID,918.734,VALID,0,VALID,96.9851,VALID,0,VALID,19.3308,VALID,172,VALID,0,
2012-03-28, 02:43:05,VALID,918.717,VALID,0,VALID,96.9775,VALID,0,VALID,19.3503,VALID,172,VALID,0,
2012-03-28, 02:44:05,VALID,918.721,VALID,0,VALID,97.008,VALID,0,VALID,19.3503,VALID,172,VALID,0,
2012-03-28, 02:45:05,VALID,918.749,VALID,0,VALID,97.0308,VALID,0,VALID,19.3489,VALID,172,VALID,0,
2012-03-28, 02:46:05,VALID,918.756,VALID,0,VALID,96.9622,VALID,0.107441,VALID,19.3489,VALID,172,VALID,0.614844,
2012-03-28, 02:47:05,VALID,918.786,VALID,0,VALID,96.9165,VALID,0,VALID,19.3518,VALID,172,VALID,0.559375,
2012-03-28, 02:48:05,VALID,918.795,VALID,0,VALID,96.9317,VALID,0.107441,VALID,19.3113,VALID,172,VALID,0.605078,
2012-03-28, 02:49:05,VALID,918.811,VALID,0,VALID,96.9394,VALID,0,VALID,19.2709,VALID,172,VALID,0.604688,
2012-03-28, 02:50:05,VALID,918.803,VALID,0,VALID,96.9622,VALID,0,VALID,19.2709,VALID,172,VALID,0.748438,
2012-03-28, 02:51:05,VALID,918.84,VALID,0,VALID,96.947,VALID,0,VALID,19.2918,VALID,116,VALID,1.025,
2012-03-28, 02:52:05,VALID,918.848,VALID,0,VALID,96.9165,VALID,0.107441,VALID,19.2723,VALID,115,VALID,1.24961,
2012-03-28, 02:53:05,VALID,918.871,VALID,0,VALID,96.8936,VALID,0,VALID,19.2709,VALID,115,VALID,1.28945,
2012-03-28, 02:54:05,VALID,918.909,VALID,0,VALID,96.886,VALID,0,VALID,19.2723,VALID,115,VALID,1.35977,
2012-03-28, 02:55:05,VALID,918.918,VALID,0,VALID,96.9089,VALID,0.107441,VALID,19.2723,VALID,115,VALID,1.16641,
2012-03-28, 02:56:05,VALID,918.912,VALID,0,VALID,96.8936,VALID,0,VALID,19.2528,VALID,115,VALID,1.24609,
2012-03-28, 02:57:05,VALID,918.931,VALID,0,VALID,96.8936,VALID,0,VALID,19.2514,VALID,116,VALID,1.20469,
2012-03-28, 02:58:05,VALID,918.875,VALID,0,VALID,96.9012,VALID,0,VALID,19.2723,VALID,129,VALID,1.31211,
2012-03-28, 02:59:05,VALID,918.9,VALID,0,VALID,96.9012,VALID,0,VALID,19.2723,VALID,129,VALID,1.26055,
2012-03-28, 03:00:05,VALID,918.92,VALID,0,VALID,96.9165,VALID,0,VALID,19.2528,VALID,120,VALID,1.10742,
2012-03-28, 03:01:05,VALID,918.896,VALID,0,VALID,96.9394,VALID,0,VALID,19.2528,VALID,120,VALID,1.13203,
2012-03-28, 03:02:05,VALID,918.883,VALID,0,VALID,96.9165,VALID,0,VALID,19.2528,VALID,119,VALID,0.971484,
2012-03-28, 03:03:05,VALID,918.907,VALID,0,VALID,96.9012,VALID,0,VALID,19.2723,VALID,120,VALID,0.736328,
2012-03-28, 03:04:05,VALID,918.929,VALID,0,VALID,96.8936,VALID,0,VALID,19.2528,VALID,120,VALID,0.865234,
2012-03-28, 03:05:05,VALID,918.881,VALID,0,VALID,96.886,VALID,0,VALID,19.2528,VALID,119,VALID,0.948438,
2012-03-28, 03:06:05,VALID,918.892,VALID,0,VALID,96.8707,VALID,0,VALID,19.2723,VALID,120,VALID,0.794141,
2012-03-28, 03:07:05,VALID,918.898,VALID,0,VALID,96.9012,VALID,0,VALID,19.2918,VALID,119,VALID,0.286328,
2012-03-28, 03:08:05,VALID,918.916,VALID,0,VALID,96.8936,VALID,0,VALID,19.2918,VALID,120,VALID,0,
2012-03-28, 03:09:05,VALID,918.893,VALID,0,VALID,96.9012,VALID,0,VALID,19.2904,VALID,119,VALID,0,
2012-03-28, 03:10:05,VALID,918.893,VALID,0,VALID,96.8784,VALID,0.107441,VALID,19.3113,VALID,120,VALID,0.375781,
2012-03-28, 03:11:05,VALID,918.881,VALID,0,VALID,96.8326,VALID,0,VALID,19.3113,VALID,119,VALID,0.325781,
2012-03-28, 03:12:05,VALID,918.887,VALID,0,VALID,96.8098,VALID,0,VALID,19.2918,VALID,120,VALID,0.164063,
2012-03-28, 03:13:05,VALID,918.867,VALID,0,VALID,96.7945,VALID,0,VALID,19.2723,VALID,120,VALID,0.219922,
2012-03-28, 03:14:05,VALID,918.894,VALID,0,VALID,96.825,VALID,0,VALID,19.2918,VALID,120,VALID,0.0664063,
2012-03-28, 03:15:05,VALID,918.897,VALID,0,VALID,96.7793,VALID,0.107441,VALID,19.2514,VALID,120,VALID,0,
2012-03-28, 03:16:05,VALID,918.914,VALID,0,VALID,96.7869,VALID,0,VALID,19.2319,VALID,120,VALID,0,
2012-03-28, 03:17:05,VALID,918.905,VALID,0,VALID,96.8098,VALID,0,VALID,19.2528,VALID,119,VALID,0,
2012-03-28, 03:18:05,VALID,918.915,VALID,0,VALID,96.825,VALID,0,VALID,19.2334,VALID,120,VALID,0,
2012-03-28, 03:19:05,VALID,918.906,VALID,0,VALID,96.7945,VALID,0,VALID,19.2528,VALID,120,VALID,0,
2012-03-28, 03:20:05,VALID,918.931,VALID,0,VALID,96.8098,VALID,0,VALID,19.2514,VALID,120,VALID,0,
2012-03-28, 03:21:05,VALID,918.91,VALID,0,VALID,96.8174,VALID,0,VALID,19.2514,VALID,120,VALID,0,
2012-03-28, 03:22:05,VALID,918.888,VALID,0,VALID,96.8174,VALID,0,VALID,19.2918,VALID,120,VALID,0,
2012-03-28, 03:23:05,VALID,918.886,VALID,0,VALID,96.8098,VALID,0,VALID,19.3128,VALID,120,VALID,0,
2012-03-28, 03:24:05,VALID,918.88,VALID,0,VALID,96.7869,VALID,0,VALID,19.3113,VALID,120,VALID,0,
2012-03-28, 03:25:05,VALID,918.853,VALID,0,VALID,96.7869,VALID,0,VALID,19.3113,VALID,120,VALID,0,
2012-03-28, 03:26:05,VALID,918.84,VALID,0,VALID,96.7869,VALID,0,VALID,19.2904,VALID,120,VALID,0,
2012-03-28, 03:27:05,VALID,918.829,VALID,0,VALID,96.7869,VALID,0,VALID,19.3308,VALID,120,VALID,0,
2012-03-28, 03:28:05,VALID,918.818,VALID,0,VALID,96.7716,VALID,0.107441,VALID,19.3099,VALID,120,VALID,0,
2012-03-28, 03:29:05,VALID,918.839,VALID,0,VALID,96.7335,VALID,0,VALID,19.2904,VALID,120,VALID,0,
2012-03-28, 03:30:05,VALID,918.831,VALID,0,VALID,96.7183,VALID,0,VALID,19.2709,VALID,120,VALID,0,
2012-03-28, 03:31:05,VALID,918.868,VALID,0,VALID,96.6649,VALID,0,VALID,19.2723,VALID,120,VALID,0,
2012-03-28, 03:32:05,VALID,918.882,VALID,0,VALID,96.6573,VALID,0,VALID,19.3099,VALID,120,VALID,0,
2012-03-28, 03:33:05,VALID,918.942,VALID,0,VALID,96.6192,VALID,0,VALID,19.3503,VALID,120,VALID,0,
2012-03-28, 03:34:05,VALID,918.93,VALID,0,VALID,96.5811,VALID,0,VALID,19.3503,VALID,120,VALID,0,
2012-03-28, 03:35:05,VALID,918.928,VALID,0,VALID,96.5277,VALID,0,VALID,19.3503,VALID,120,VALID,0.608594,
2012-03-28, 03:36:05,VALID,918.948,VALID,0,VALID,96.4896,VALID,0,VALID,19.3503,VALID,120,VALID,0.829297,
2012-03-28, 03:37:05,VALID,918.964,VALID,0,VALID,96.4896,VALID,0,VALID,19.3698,VALID,154,VALID,1.19414,
2012-03-28, 03:38:05,VALID,918.943,VALID,0,VALID,96.4819,VALID,0,VALID,19.3308,VALID,136,VALID,1.08672,
2012-03-28, 03:39:05,VALID,918.949,VALID,0,VALID,96.4972,VALID,0,VALID,19.2918,VALID,141,VALID,0.938672,
2012-03-28, 03:40:05,VALID,918.945,VALID,0,VALID,96.5353,VALID,0.107441,VALID,19.2918,VALID,141,VALID,1.09102,
2012-03-28, 03:41:05,VALID,918.94,VALID,0,VALID,96.5124,VALID,0,VALID,19.2918,VALID,141,VALID,0.867578,
2012-03-28, 03:42:05,VALID,918.939,VALID,0,VALID,96.5429,VALID,0.107441,VALID,19.2918,VALID,141,VALID,0.721484,
2012-03-28, 03:43:05,VALID,918.936,VALID,0,VALID,96.5277,VALID,0,VALID,19.2723,VALID,141,VALID,0.992969,
2012-03-28, 03:44:05,VALID,918.934,VALID,0,VALID,96.5582,VALID,0.107441,VALID,19.2723,VALID,141,VALID,0.898828,